EDT,Max TemperatureF,Mean TemperatureF,Min TemperatureF,Max Dew PointF,MeanDew PointF,Min DewpointF,Max Humidity, Mean Humidity, Min Humidity, Max Sea Level PressureIn, Mean Sea Level PressureIn, Min Sea Level PressureIn, Max VisibilityMiles, Mean VisibilityMiles, Min VisibilityMiles, Max Wind SpeedMPH, Mean Wind SpeedMPH, Max Gust SpeedMPH,PrecipitationIn, CloudCover, Events, WindDirDegrees
2013-5-1,72,66,60,59,56,54,84,71,57,30.23,30.18,30.13,10,10,10,15,9,21,0.00,7,,44
2013-5-2,72,68,63,60,58,57,90,76,61,30.23,30.19,30.15,10,10,6,17,11,24,T,8,,54
2013-5-3,71,65,59,58,55,51,84,73,61,30.16,30.11,30.05,10,10,10,23,11,31,T,7,,63
2013-5-4,66,61,55,57,50,44,90,73,55,30.05,29.99,29.91,10,10,5,24,13,29,0.11,8,Rain,68
2013-5-5,66,62,57,63,58,54,93,86,78,29.92,29.84,29.79,10,5,0,25,13,32,2.17,8,Fog-Rain,100
2013-5-6,73,64,54,63,54,44,97,68,38,29.92,29.86,29.81,10,9,5,16,6,21,0.00,5,,220
2013-5-7,72,62,51,55,51,48,89,70,51,29.97,29.92,29.88,10,10,5,14,3,20,0.03,5,Rain,193
2013-5-8,82,67,52,56,52,48,89,62,35,30.02,29.97,29.93,10,10,10,18,5,23,0.00,3,,251
2013-5-9,86,71,56,59,55,51,86,59,32,30.09,30.04,29.99,10,10,7,12,3,15,0.00,1,,285
2013-5-10,89,74,59,62,58,55,84,59,34,30.08,30.03,29.97,10,10,6,18,6,24,0.00,4,,209
2013-5-11,85,76,66,63,61,58,81,63,44,29.99,29.91,29.85,10,10,9,17,7,22,0.00,6,,229
2013-5-12,81,71,60,62,50,39,87,55,23,30.03,29.92,29.84,10,10,10,21,9,28,0.00,2,,277
2013-5-13,73,62,50,42,37,32,71,47,23,30.17,30.10,30.04,10,10,10,17,6,24,0.00,1,,328
2013-5-14,78,61,44,43,39,33,83,52,20,30.28,30.19,30.12,10,10,10,13,4,21,0.00,0,,211
2013-5-15,93,76,58,58,52,42,62,46,30,30.13,30.05,29.96,10,10,10,16,7,23,0.00,0,,241
2013-5-16,87,77,66,63,59,57,73,57,40,30.04,30.00,29.96,10,10,10,15,5,23,0.00,5,,244
2013-5-17,89,76,63,63,59,54,87,59,31,30.10,30.05,30.01,10,10,9,13,3,17,0.00,4,,223
2013-5-18,82,75,67,68,65,59,90,74,58,30.13,30.09,30.04,10,8,1,18,5,22,0.55,7,Rain,153
2013-5-19,83,76,68,71,68,65,97,78,58,30.12,30.07,30.03,10,7,0,30,5,33,0.76,8,Fog-Rain-Thunderstorm,114
2013-5-20,86,77,67,70,68,62,97,73,48,30.11,30.07,30.01,10,8,2,13,2,16,T,6,Rain,147
2013-5-21,86,77,68,70,68,61,97,79,61,30.05,30.01,29.96,10,9,4,20,4,26,T,7,Rain-Thunderstorm,162
2013-5-22,86,75,64,67,65,63,100,73,45,30.03,29.99,29.88,10,8,0,16,5,21,0.00,5,Fog,169
2013-5-23,86,77,68,68,65,60,97,72,47,29.95,29.91,29.84,10,9,6,20,6,24,0.00,5,,252
2013-5-24,81,68,55,58,48,34,73,47,20,30.18,30.00,29.88,10,10,10,22,8,29,0.00,1,,320
2013-5-25,80,63,45,52,41,30,86,52,17,30.32,30.23,30.17,10,10,10,13,3,16,0.00,2,,40
2013-5-26,79,66,53,54,47,39,89,61,32,30.28,30.21,30.16,10,10,10,15,4,22,0.00,3,,77
2013-5-27,87,71,54,63,56,51,86,62,37,30.25,30.20,30.13,10,10,10,15,5,20,0.00,2,,135
2013-5-28,86,75,64,65,62,59,93,69,44,30.24,30.19,30.14,10,10,9,18,6,21,0.00,4,,156
2013-5-29,87,74,60,64,61,57,90,66,42,30.25,30.20,30.15,10,10,10,16,5,21,0.00,2,,117
2013-5-30,89,75,60,66,63,58,90,67,43,30.27,30.20,30.14,10,10,9,13,4,16,0.00,3,,123
2013-5-31,89,79,69,70,67,63,100,72,43,30.24,30.18,30.09,10,7,0,18,6,21,T,5,Fog,126